Wilmington, NC

6:56 PM EST on January 23, 2018 (GMT -0500)
Wilmington International

Weather History for KILM - January, 2012

Change the Weather History Date:

Monday, January 2, 2012

  Actual Average Record
Temperature  
Mean Temperature 49 °F 46 °F  
Max Temperature 61 °F 56 °F 80 °F (1985)
Min Temperature 37 °F 35 °F 14 °F (1928)
Degree Days  
Heating Degree Days 16 19  
Month to date heating degree days 27 38  
Since 1 July heating degree days 734 922  
Cooling Degree Days 0 0  
Month to date cooling degree days 0 0  
Year to date cooling degree days 0 0  
Moisture  
Dew Point 28 °F    
Average Humidity 56    
Maximum Humidity 86    
Minimum Humidity 26    
Precipitation  
Precipitation 0.00 in 0.12 in 2.27 in (1983)
Month to date precipitation 0.00 0.24  
Year to date precipitation 0.00 0.24  
Snow  
Snow 0.00 in 0.00 in 0.10 in (1918)
Month to date snowfall 0.0 0.0  
Since 1 July snowfall 0.0 0.8  
Snow Depth 0.00 in    
Sea Level Pressure  
Sea Level Pressure 29.98 in    
Wind  
Wind Speed 10 mph (NW)    
Max Wind Speed 20 mph    
Max Gust Speed 26 mph    
Visibility 10 miles    
Events      
T = Trace of Precipitation, MM = Missing Value Source: NWS Daily Summary

Daily Weather History Graph

Daily Weather History Graph

Search for Another Location

Airport or City:

Trip Planner

Search our weather history database for the weather conditions in past years. The results will help you decide how hot, cold, wet, or windy it might be!

Date:

Astronomy

Jan. 02, 2012 Rise Set
Actual Time 7:17 AM EST 5:13 PM EST
Civil Twilight 6:50 AM EST 5:40 PM EST
Nautical Twilight 6:18 AM EST 6:12 PM EST
Astronomical Twilight 5:48 AM EST 6:42 PM EST
Moon 12:22 PM EST (1/2) 1:16 AM EST (1/2)
Length of Visible Light 10h 50m
Length of Day
9h 55m
Waxing Gibbous, 63% of the Moon is Illuminated
Jan 2
Waxing Gibbous
Jan 9
Full
Jan 16
Last Quarter
Jan 23
New
Jan 30
First Quarter

Hourly Weather History & Observations

Time (EST) Temp. Windchill Dew Point Humidity Pressure Visibility Wind Dir Wind Speed Gust Speed Precip Events Conditions
12:53 AM 60.8 °F - 53.6 °F 77% 29.94 in 10.0 mi WSW 10.4 mph - N/A   Clear
1:53 AM 57.9 °F - 54.0 °F 87% 29.94 in 10.0 mi WSW 9.2 mph - N/A   Mostly Cloudy
2:53 AM 57.0 °F - 54.0 °F 89% 29.96 in 10.0 mi NW 6.9 mph - N/A   Overcast
3:53 AM 55.9 °F - 35.1 °F 45% 29.96 in 10.0 mi WNW 10.4 mph - N/A   Overcast
4:53 AM 52.0 °F - 34.0 °F 50% 29.98 in 10.0 mi NW 13.8 mph 19.6 mph N/A   Clear
5:53 AM 46.9 °F - 30.9 °F 54% 30.00 in 10.0 mi NNW 11.5 mph - N/A   Clear
6:53 AM 44.1 °F 39.5 °F 27.0 °F 51% 30.02 in 10.0 mi NNW 8.1 mph - N/A   Clear
7:53 AM 44.1 °F 40.1 °F 26.1 °F 49% 30.04 in 10.0 mi NNW 6.9 mph - N/A   Clear
8:53 AM 48.0 °F - 26.1 °F 42% 30.06 in 10.0 mi NW 12.7 mph 17.3 mph N/A   Clear
9:53 AM 50.0 °F - 25.0 °F 38% 30.05 in 10.0 mi NNW 19.6 mph 24.2 mph N/A   Clear
10:53 AM 50.0 °F - 23.0 °F 35% 30.04 in 10.0 mi NNW 11.5 mph - N/A   Clear
11:53 AM 52.0 °F - 23.0 °F 32% 30.01 in 10.0 mi NW 11.5 mph - N/A   Clear
12:53 PM 53.1 °F - 23.0 °F 31% 29.97 in 10.0 mi WNW 11.5 mph 19.6 mph N/A   Clear
1:53 PM 53.6 °F - 23.0 °F 30% 29.94 in 10.0 mi WNW 10.4 mph - N/A   Clear
2:53 PM 53.6 °F - 19.4 °F 26% 29.93 in 10.0 mi WNW 13.8 mph - N/A   Clear
3:53 PM 52.0 °F - 19.0 °F 27% 29.93 in 10.0 mi West 15.0 mph 18.4 mph N/A   Clear
4:53 PM 50.0 °F - 19.0 °F 29% 29.94 in 10.0 mi West 10.4 mph - N/A   Clear
5:53 PM 46.0 °F - 21.0 °F 37% 29.94 in 10.0 mi Calm Calm - N/A   Clear
6:53 PM 41.0 °F - 25.0 °F 53% 29.96 in 10.0 mi Calm Calm - N/A   Clear
7:53 PM 37.9 °F - 27.0 °F 65% 29.96 in 10.0 mi Calm Calm - N/A   Mostly Cloudy
8:53 PM 39.9 °F - 30.9 °F 70% 29.96 in 10.0 mi Calm Calm - N/A   Overcast
9:53 PM 42.1 °F 35.2 °F 28.0 °F 58% 29.97 in 10.0 mi North 12.7 mph 23.0 mph N/A   Overcast
10:53 PM 39.0 °F 32.3 °F 19.0 °F 45% 29.98 in 10.0 mi NNW 10.4 mph - N/A   Overcast
11:53 PM 39.0 °F 29.6 °F 16.0 °F 39% 29.97 in 10.0 mi North 18.4 mph 23.0 mph N/A   Overcast